"Date","Average Accumulated Water Year PPT (in)","Average SWE (in)"
10/01/1981,0.307,0.000
10/02/1981,0.307,0.000
10/03/1981,0.307,0.000
10/04/1981,0.635,0.000
10/05/1981,0.786,0.000
10/06/1981,0.802,0.000
10/07/1981,0.802,0.000
10/08/1981,0.802,0.000
10/09/1981,0.802,0.000
10/10/1981,0.816,0.000
10/11/1981,0.821,0.000
10/12/1981,1.284,0.000
10/13/1981,1.495,0.000
10/14/1981,2.964,0.000
10/15/1981,3.047,0.000
10/16/1981,3.169,0.000
10/17/1981,3.862,0.000
10/18/1981,3.867,0.000
10/19/1981,3.867,0.000
10/20/1981,3.867,0.000
10/21/1981,3.867,0.000
10/22/1981,3.867,0.000
10/23/1981,3.867,0.000
10/24/1981,3.867,0.000
10/25/1981,3.879,0.000
10/26/1981,4.219,0.000
10/27/1981,4.219,0.000
10/28/1981,4.219,0.000
10/29/1981,4.219,0.000
10/30/1981,4.219,0.000
10/31/1981,4.351,0.000
11/01/1981,5.948,0.000
11/02/1981,5.952,0.000
11/03/1981,5.968,0.000
11/04/1981,6.335,0.000
11/05/1981,6.365,0.000
11/06/1981,6.366,0.000
11/07/1981,6.366,0.000
11/08/1981,6.533,0.000
11/09/1981,7.104,0.000
11/10/1981,7.104,0.000
11/11/1981,7.104,0.000
11/12/1981,7.104,0.000
11/13/1981,7.104,0.000
11/14/1981,7.104,0.000
11/15/1981,7.104,0.000
11/16/1981,7.104,0.000
11/17/1981,7.104,0.000
11/18/1981,7.104,0.000
11/19/1981,7.104,0.000
11/20/1981,7.115,0.003
11/21/1981,7.115,0.003
11/22/1981,7.115,0.000
11/23/1981,7.115,0.000
11/24/1981,7.115,0.000
11/25/1981,7.115,0.000
11/26/1981,7.115,0.000
11/27/1981,7.115,0.000
11/28/1981,7.115,0.000
11/29/1981,7.115,0.000
11/30/1981,8.107,0.000
12/01/1981,8.346,0.000
12/02/1981,8.348,0.000
12/03/1981,8.348,0.000
12/04/1981,8.348,0.000
12/05/1981,8.348,0.000
12/06/1981,8.348,0.000
12/07/1981,8.348,0.000
12/08/1981,8.348,0.000
12/09/1981,8.348,0.000
12/10/1981,8.348,0.000
12/11/1981,8.348,0.000
12/12/1981,8.348,0.000
12/13/1981,8.348,0.000
12/14/1981,8.348,0.000
12/15/1981,8.348,0.000
12/16/1981,8.348,0.000
12/17/1981,8.386,0.035
12/18/1981,8.386,0.035
12/19/1981,8.386,0.035
12/20/1981,8.386,0.035
12/21/1981,8.387,0.035
12/22/1981,8.387,0.017
12/23/1981,8.551,0.190
12/24/1981,8.551,0.190
12/25/1981,8.551,0.190
12/26/1981,8.551,0.190
12/27/1981,8.551,0.190
12/28/1981,8.551,0.190
12/29/1981,8.551,0.190
12/30/1981,8.551,0.190
12/31/1981,8.551,0.088
01/01/1982,8.551,0.088
01/02/1982,8.559,0.091
01/03/1982,8.604,0.113
01/04/1982,8.771,0.250
01/05/1982,8.771,0.250
01/06/1982,8.771,0.250
01/07/1982,8.771,0.250
01/08/1982,8.771,0.250
01/09/1982,8.771,0.250
01/10/1982,8.771,0.250
01/11/1982,8.771,0.250
01/12/1982,8.771,0.250
01/13/1982,8.775,0.252
01/14/1982,8.776,0.253
01/15/1982,8.776,0.252
01/16/1982,8.776,0.252
01/17/1982,8.776,0.252
01/18/1982,8.776,0.252
01/19/1982,8.776,0.252
01/20/1982,8.789,0.256
01/21/1982,8.850,0.257
01/22/1982,9.003,0.285
01/23/1982,9.104,0.299
01/24/1982,9.104,0.299
01/25/1982,9.104,0.299
01/26/1982,9.104,0.299
01/27/1982,9.104,0.292
01/28/1982,9.104,0.116
01/29/1982,9.161,0.063
01/30/1982,10.993,0.024
01/31/1982,10.997,0.029
02/01/1982,10.997,0.029
02/02/1982,10.997,0.029
02/03/1982,11.000,0.032
02/04/1982,11.000,0.033
02/05/1982,11.235,0.279
02/06/1982,11.235,0.279
02/07/1982,11.258,0.289
02/08/1982,11.267,0.296
02/09/1982,11.496,0.489
02/10/1982,11.496,0.489
02/11/1982,11.496,0.491
02/12/1982,11.633,0.617
02/13/1982,11.634,0.618
02/14/1982,11.634,0.618
02/15/1982,11.641,0.386
02/16/1982,11.642,0.140
02/17/1982,11.642,0.054
02/18/1982,11.676,0.018
02/19/1982,11.676,0.000
02/20/1982,11.676,0.000
02/21/1982,11.676,0.000
02/22/1982,11.676,0.000
02/23/1982,11.676,0.000
02/24/1982,11.676,0.000
02/25/1982,11.676,0.000
02/26/1982,11.676,0.000
02/27/1982,11.676,0.000
02/28/1982,11.676,0.000
03/01/1982,11.676,0.000
03/02/1982,11.676,0.000
03/03/1982,11.676,0.000
03/04/1982,11.704,0.003
03/05/1982,11.704,0.003
03/06/1982,11.704,0.003
03/07/1982,11.704,0.003
03/08/1982,11.704,0.003
03/09/1982,11.704,0.000
03/10/1982,11.704,0.000
03/11/1982,11.704,0.000
03/12/1982,11.704,0.000
03/13/1982,11.716,0.000
03/14/1982,12.149,0.000
03/15/1982,12.777,0.000
03/16/1982,13.284,0.000
03/17/1982,13.286,0.000
03/18/1982,13.286,0.000
03/19/1982,13.297,0.000
03/20/1982,13.297,0.000
03/21/1982,13.297,0.000
03/22/1982,13.297,0.000
03/23/1982,13.297,0.000
03/24/1982,13.297,0.000
03/25/1982,13.440,0.000
03/26/1982,13.440,0.000
03/27/1982,13.440,0.000
03/28/1982,13.440,0.000
03/29/1982,13.454,0.000
03/30/1982,14.005,0.000
03/31/1982,14.005,0.000
04/01/1982,14.006,0.000
04/02/1982,14.006,0.000
04/03/1982,14.045,0.000
04/04/1982,14.045,0.000
04/05/1982,14.246,0.000
04/06/1982,14.251,0.003
04/07/1982,14.267,0.002
04/08/1982,14.388,0.000
04/09/1982,14.396,0.000
04/10/1982,14.396,0.000
04/11/1982,14.396,0.000
04/12/1982,14.396,0.000
04/13/1982,14.396,0.000
04/14/1982,14.396,0.000
04/15/1982,14.396,0.000
04/16/1982,14.401,0.000
04/17/1982,14.402,0.000
04/18/1982,14.405,0.000
04/19/1982,14.456,0.000
04/20/1982,14.469,0.000
04/21/1982,14.469,0.000
04/22/1982,14.481,0.000
04/23/1982,14.481,0.000
04/24/1982,14.481,0.000
04/25/1982,14.599,0.000
04/26/1982,14.809,0.000
04/27/1982,14.814,0.000
04/28/1982,14.821,0.000
04/29/1982,15.556,0.000
04/30/1982,15.556,0.000
05/01/1982,15.556,0.000
05/02/1982,15.556,0.000
05/03/1982,15.556,0.000
05/04/1982,15.556,0.000
05/05/1982,15.556,0.000
05/06/1982,16.899,0.000
05/07/1982,16.989,0.000
05/08/1982,16.989,0.000
05/09/1982,16.989,0.000
05/10/1982,16.989,0.000
05/11/1982,16.989,0.000
05/12/1982,19.275,0.000
05/13/1982,19.396,0.000
05/14/1982,19.706,0.000
05/15/1982,19.945,0.000
05/16/1982,20.278,0.000
05/17/1982,20.899,0.000
05/18/1982,20.943,0.000
05/19/1982,21.037,0.000
05/20/1982,21.072,0.000
05/21/1982,21.681,0.000
05/22/1982,21.682,0.000
05/23/1982,21.683,0.000
05/24/1982,21.748,0.000
05/25/1982,22.641,0.000
05/26/1982,22.968,0.000
05/27/1982,23.028,0.000
05/28/1982,23.153,0.000
05/29/1982,24.415,0.000
05/30/1982,24.821,0.000
05/31/1982,25.786,0.000
06/01/1982,25.915,0.000
06/02/1982,25.917,0.000
06/03/1982,26.106,0.000
06/04/1982,26.574,0.000
06/05/1982,26.585,0.000
06/06/1982,26.588,0.000
06/07/1982,27.228,0.000
06/08/1982,27.631,0.000
06/09/1982,27.850,0.000
06/10/1982,27.862,0.000
06/11/1982,27.961,0.000
06/12/1982,28.245,0.000
06/13/1982,28.250,0.000
06/14/1982,28.360,0.000
06/15/1982,29.217,0.000
06/16/1982,29.402,0.000
06/17/1982,29.404,0.000
06/18/1982,29.524,0.000
06/19/1982,29.682,0.000
06/20/1982,29.682,0.000
06/21/1982,29.700,0.000
06/22/1982,29.869,0.000
06/23/1982,29.892,0.000
06/24/1982,30.286,0.000
06/25/1982,30.425,0.000
06/26/1982,30.503,0.000
06/27/1982,30.827,0.000
06/28/1982,30.889,0.000
06/29/1982,30.908,0.000
06/30/1982,30.938,0.000
07/01/1982,31.520,0.000
07/02/1982,31.939,0.000
07/03/1982,31.939,0.000
07/04/1982,31.939,0.000
07/05/1982,31.939,0.000
07/06/1982,31.992,0.000
07/07/1982,32.450,0.000
07/08/1982,32.450,0.000
07/09/1982,32.450,0.000
07/10/1982,33.084,0.000
07/11/1982,33.084,0.000
07/12/1982,33.084,0.000
07/13/1982,33.097,0.000
07/14/1982,33.437,0.000
07/15/1982,33.606,0.000
07/16/1982,33.609,0.000
07/17/1982,33.609,0.000
07/18/1982,33.609,0.000
07/19/1982,33.609,0.000
07/20/1982,33.609,0.000
07/21/1982,33.610,0.000
07/22/1982,33.625,0.000
07/23/1982,33.626,0.000
07/24/1982,33.626,0.000
07/25/1982,33.626,0.000
07/26/1982,33.626,0.000
07/27/1982,33.635,0.000
07/28/1982,33.644,0.000
07/29/1982,33.644,0.000
07/30/1982,33.644,0.000
07/31/1982,33.644,0.000
08/01/1982,33.644,0.000
08/02/1982,33.644,0.000
08/03/1982,33.644,0.000
08/04/1982,33.661,0.000
08/05/1982,33.778,0.000
08/06/1982,34.095,0.000
08/07/1982,34.185,0.000
08/08/1982,34.191,0.000
08/09/1982,34.191,0.000
08/10/1982,34.201,0.000
08/11/1982,34.805,0.000
08/12/1982,35.473,0.000
08/13/1982,37.130,0.000
08/14/1982,37.149,0.000
08/15/1982,37.271,0.000
08/16/1982,37.271,0.000
08/17/1982,37.271,0.000
08/18/1982,37.271,0.000
08/19/1982,37.271,0.000
08/20/1982,37.271,0.000
08/21/1982,37.271,0.000
08/22/1982,37.300,0.000
08/23/1982,37.458,0.000
08/24/1982,37.611,0.000
08/25/1982,37.971,0.000
08/26/1982,37.984,0.000
08/27/1982,38.150,0.000
08/28/1982,38.150,0.000
08/29/1982,38.150,0.000
08/30/1982,38.156,0.000
08/31/1982,38.161,0.000
09/01/1982,38.230,0.000
09/02/1982,38.238,0.000
09/03/1982,38.238,0.000
09/04/1982,38.238,0.000
09/05/1982,38.238,0.000
09/06/1982,38.246,0.000
09/07/1982,38.315,0.000
09/08/1982,38.315,0.000
09/09/1982,38.576,0.000
09/10/1982,38.635,0.000
09/11/1982,38.635,0.000
09/12/1982,38.635,0.000
09/13/1982,38.886,0.000
09/14/1982,39.210,0.000
09/15/1982,39.362,0.000
09/16/1982,39.362,0.000
09/17/1982,39.369,0.000
09/18/1982,39.370,0.000
09/19/1982,39.370,0.000
09/20/1982,39.370,0.000
09/21/1982,39.370,0.000
09/22/1982,39.370,0.000
09/23/1982,39.376,0.000
09/24/1982,39.404,0.000
09/25/1982,39.410,0.000
09/26/1982,39.410,0.000
09/27/1982,39.410,0.000
09/28/1982,39.410,0.000
09/29/1982,39.410,0.000
09/30/1982,39.410,0.000
10/01/1982,0.000,0.000
10/02/1982,0.047,0.000
10/03/1982,0.088,0.000
10/04/1982,0.088,0.000
10/05/1982,0.088,0.000
10/06/1982,0.114,0.000
10/07/1982,0.225,0.000
10/08/1982,0.556,0.000
10/09/1982,1.596,0.000
10/10/1982,1.598,0.000
10/11/1982,1.598,0.000
10/12/1982,1.598,0.000
10/13/1982,1.598,0.000
10/14/1982,1.598,0.000
10/15/1982,1.598,0.000
10/16/1982,1.598,0.000
10/17/1982,1.598,0.000
10/18/1982,1.598,0.000
10/19/1982,1.605,0.000
10/20/1982,1.606,0.000
10/21/1982,1.607,0.000
10/22/1982,1.607,0.000
10/23/1982,1.607,0.000
10/24/1982,1.607,0.000
10/25/1982,1.607,0.000
10/26/1982,1.607,0.000
10/27/1982,1.607,0.000
10/28/1982,1.669,0.000
10/29/1982,2.080,0.000
10/30/1982,2.080,0.000
10/31/1982,2.080,0.000
11/01/1982,2.080,0.000
11/02/1982,2.080,0.000
11/03/1982,2.080,0.000
11/04/1982,2.080,0.000
11/05/1982,2.080,0.000
11/06/1982,2.080,0.000
11/07/1982,2.080,0.000
11/08/1982,2.080,0.000
11/09/1982,2.080,0.000
11/10/1982,2.080,0.000
11/11/1982,2.343,0.000
11/12/1982,2.803,0.000
11/13/1982,2.803,0.000
11/14/1982,2.803,0.000
11/15/1982,2.803,0.000
11/16/1982,2.803,0.000
11/17/1982,2.803,0.000
11/18/1982,2.803,0.000
11/19/1982,2.844,0.000
11/20/1982,2.844,0.000
11/21/1982,2.844,0.000
11/22/1982,2.844,0.000
11/23/1982,2.913,0.006
11/24/1982,2.923,0.015
11/25/1982,2.925,0.015
11/26/1982,3.028,0.005
11/27/1982,3.056,0.007
11/28/1982,3.717,0.060
11/29/1982,3.729,0.058
11/30/1982,3.729,0.008
12/01/1982,3.742,0.001
12/02/1982,3.929,0.000
12/03/1982,3.934,0.000
12/04/1982,3.995,0.000
12/05/1982,4.344,0.000
12/06/1982,4.653,0.000
12/07/1982,4.653,0.000
12/08/1982,4.655,0.000
12/09/1982,4.664,0.009
12/10/1982,5.210,0.179
12/11/1982,5.306,0.181
12/12/1982,5.306,0.181
12/13/1982,5.306,0.181
12/14/1982,5.306,0.156
12/15/1982,5.306,0.150
12/16/1982,5.306,0.150
12/17/1982,5.306,0.150
12/18/1982,5.306,0.061
12/19/1982,5.306,0.002
12/20/1982,5.306,0.000
12/21/1982,5.306,0.000
12/22/1982,5.306,0.000
12/23/1982,5.316,0.000
12/24/1982,5.397,0.000
12/25/1982,5.835,0.000
12/26/1982,5.842,0.004
12/27/1982,5.988,0.035
12/28/1982,6.852,0.330
12/29/1982,6.855,0.336
12/30/1982,6.855,0.336
12/31/1982,6.855,0.336
01/01/1983,6.855,0.336
01/02/1983,6.855,0.336
01/03/1983,6.855,0.336
01/04/1983,6.855,0.336
01/05/1983,6.855,0.336
01/06/1983,6.855,0.315
01/07/1983,6.855,0.203
01/08/1983,6.855,0.196
01/09/1983,6.855,0.156
01/10/1983,6.874,0.128
01/11/1983,6.874,0.114
01/12/1983,6.874,0.114
01/13/1983,6.874,0.114
01/14/1983,6.874,0.038
01/15/1983,6.874,0.038
01/16/1983,6.874,0.038
01/17/1983,6.874,0.038
01/18/1983,6.881,0.040
01/19/1983,6.912,0.080
01/20/1983,6.931,0.101
01/21/1983,6.936,0.103
01/22/1983,6.986,0.153
01/23/1983,6.987,0.154
01/24/1983,6.987,0.118
01/25/1983,6.993,0.122
01/26/1983,7.189,0.365
01/27/1983,7.262,0.439
01/28/1983,7.262,0.439
01/29/1983,7.525,0.181
01/30/1983,7.576,0.191
01/31/1983,7.647,0.254
02/01/1983,8.327,1.077
02/02/1983,8.596,1.331
02/03/1983,8.609,1.339
02/04/1983,8.629,1.363
02/05/1983,8.733,1.537
02/06/1983,8.734,1.538
02/07/1983,8.734,1.538
02/08/1983,8.737,1.540
02/09/1983,8.737,1.525
02/10/1983,8.737,1.451
02/11/1983,8.745,1.088
02/12/1983,8.745,0.997
02/13/1983,8.745,0.958
02/14/1983,8.745,0.711
02/15/1983,8.745,0.412
02/16/1983,8.777,0.298
02/17/1983,8.777,0.105
02/18/1983,8.777,0.017
02/19/1983,8.777,0.000
02/20/1983,8.796,0.000
02/21/1983,8.863,0.000
02/22/1983,8.866,0.000
02/23/1983,8.866,0.000
02/24/1983,8.875,0.000
02/25/1983,8.875,0.000
02/26/1983,8.875,0.000
02/27/1983,8.875,0.000
02/28/1983,8.875,0.000
03/01/1983,8.875,0.000
03/02/1983,8.875,0.000
03/03/1983,8.879,0.000
03/04/1983,8.998,0.000
03/05/1983,9.979,0.000
03/06/1983,10.046,0.000
03/07/1983,10.048,0.000
03/08/1983,10.048,0.000
03/09/1983,10.048,0.000
03/10/1983,10.048,0.000
03/11/1983,10.048,0.000
03/12/1983,10.048,0.000
03/13/1983,10.058,0.000
03/14/1983,10.058,0.000
03/15/1983,10.058,0.000
03/16/1983,10.058,0.000
03/17/1983,10.058,0.000
03/18/1983,10.058,0.000
03/19/1983,10.060,0.000
03/20/1983,10.348,0.061
03/21/1983,10.348,0.061
03/22/1983,10.348,0.061
03/23/1983,10.348,0.038
03/24/1983,10.348,0.000
03/25/1983,10.364,0.000
03/26/1983,11.042,0.000
03/27/1983,11.876,0.006
03/28/1983,11.898,0.005
03/29/1983,12.000,0.001
03/30/1983,12.235,0.000
03/31/1983,12.305,0.000
04/01/1983,13.534,0.000
04/02/1983,14.436,0.000
04/03/1983,14.498,0.002
04/04/1983,15.390,0.020
04/05/1983,16.219,0.072
04/06/1983,16.286,0.042
04/07/1983,16.286,0.025
04/08/1983,16.298,0.002
04/09/1983,16.619,0.003
04/10/1983,16.664,0.000
04/11/1983,16.671,0.000
04/12/1983,16.844,0.000
04/13/1983,16.845,0.000
04/14/1983,16.892,0.000
04/15/1983,16.892,0.000
04/16/1983,16.892,0.000
04/17/1983,16.892,0.000
04/18/1983,16.895,0.000
04/19/1983,16.895,0.000
04/20/1983,16.895,0.000
04/21/1983,16.912,0.000
04/22/1983,17.678,0.000
04/23/1983,18.279,0.000
04/24/1983,18.279,0.000
04/25/1983,18.279,0.000
04/26/1983,18.279,0.000
04/27/1983,18.279,0.000
04/28/1983,19.405,0.000
04/29/1983,19.600,0.000
04/30/1983,19.651,0.000
05/01/1983,20.393,0.000
05/02/1983,20.394,0.000
05/03/1983,20.397,0.000
05/04/1983,20.397,0.000
05/05/1983,20.397,0.000
05/06/1983,20.419,0.000
05/07/1983,20.702,0.000
05/08/1983,20.707,0.000
05/09/1983,20.707,0.000
05/10/1983,20.707,0.000
05/11/1983,20.708,0.000
05/12/1983,20.836,0.000
05/13/1983,21.414,0.000
05/14/1983,22.075,0.000
05/15/1983,22.094,0.000
05/16/1983,22.094,0.000
05/17/1983,22.201,0.000
05/18/1983,22.849,0.000
05/19/1983,22.850,0.000
05/20/1983,22.910,0.000
05/21/1983,23.380,0.000
05/22/1983,23.394,0.000
05/23/1983,23.394,0.000
05/24/1983,23.416,0.000
05/25/1983,23.940,0.000
05/26/1983,23.940,0.000
05/27/1983,23.980,0.000
05/28/1983,25.026,0.000
05/29/1983,25.129,0.000
05/30/1983,25.134,0.000
05/31/1983,25.134,0.000
06/01/1983,25.134,0.000
06/02/1983,25.191,0.000
06/03/1983,26.178,0.000
06/04/1983,26.201,0.000
06/05/1983,26.210,0.000
06/06/1983,26.271,0.000
06/07/1983,26.271,0.000
06/08/1983,26.271,0.000
06/09/1983,26.271,0.000
06/10/1983,26.271,0.000
06/11/1983,26.431,0.000
06/12/1983,26.680,0.000
06/13/1983,26.704,0.000
06/14/1983,27.634,0.000
06/15/1983,27.634,0.000
06/16/1983,27.634,0.000
06/17/1983,27.634,0.000
06/18/1983,27.683,0.000
06/19/1983,28.562,0.000
06/20/1983,28.566,0.000
06/21/1983,28.566,0.000
06/22/1983,28.566,0.000
06/23/1983,28.566,0.000
06/24/1983,28.566,0.000
06/25/1983,28.602,0.000
06/26/1983,28.741,0.000
06/27/1983,29.254,0.000
06/28/1983,29.451,0.000
06/29/1983,29.712,0.000
06/30/1983,29.760,0.000
07/01/1983,29.760,0.000
07/02/1983,29.760,0.000
07/03/1983,29.789,0.000
07/04/1983,30.670,0.000
07/05/1983,30.682,0.000
07/06/1983,30.682,0.000
07/07/1983,30.682,0.000
07/08/1983,30.682,0.000
07/09/1983,30.682,0.000
07/10/1983,30.682,0.000
07/11/1983,30.682,0.000
07/12/1983,30.682,0.000
07/13/1983,30.682,0.000
07/14/1983,30.682,0.000
07/15/1983,30.701,0.000
07/16/1983,30.701,0.000
07/17/1983,30.701,0.000
07/18/1983,30.701,0.000
07/19/1983,30.701,0.000
07/20/1983,30.701,0.000
07/21/1983,30.701,0.000
07/22/1983,30.701,0.000
07/23/1983,30.701,0.000
07/24/1983,30.708,0.000
07/25/1983,30.793,0.000
07/26/1983,30.793,0.000
07/27/1983,30.793,0.000
07/28/1983,30.793,0.000
07/29/1983,30.793,0.000
07/30/1983,30.798,0.000
07/31/1983,30.828,0.000
08/01/1983,30.828,0.000
08/02/1983,30.828,0.000
08/03/1983,30.922,0.000
08/04/1983,30.922,0.000
08/05/1983,30.922,0.000
08/06/1983,30.922,0.000
08/07/1983,30.948,0.000
08/08/1983,30.948,0.000
08/09/1983,30.948,0.000
08/10/1983,30.948,0.000
08/11/1983,30.948,0.000
08/12/1983,30.948,0.000
08/13/1983,30.948,0.000
08/14/1983,30.953,0.000
08/15/1983,30.962,0.000
08/16/1983,31.009,0.000
08/17/1983,31.009,0.000
08/18/1983,31.009,0.000
08/19/1983,31.009,0.000
08/20/1983,31.009,0.000
08/21/1983,31.059,0.000
08/22/1983,31.060,0.000
08/23/1983,31.136,0.000
08/24/1983,31.175,0.000
08/25/1983,31.175,0.000
08/26/1983,31.175,0.000
08/27/1983,31.178,0.000
08/28/1983,31.191,0.000
08/29/1983,31.232,0.000
08/30/1983,31.454,0.000
08/31/1983,31.510,0.000
09/01/1983,31.510,0.000
09/02/1983,31.510,0.000
09/03/1983,31.510,0.000
09/04/1983,31.510,0.000
09/05/1983,31.532,0.000
09/06/1983,31.533,0.000
09/07/1983,31.586,0.000
09/08/1983,31.586,0.000
09/09/1983,31.586,0.000
09/10/1983,31.641,0.000
09/11/1983,32.173,0.000
09/12/1983,32.677,0.000
09/13/1983,32.924,0.000
09/14/1983,32.926,0.000
09/15/1983,32.994,0.000
09/16/1983,33.251,0.000
09/17/1983,33.251,0.000
09/18/1983,33.251,0.000
09/19/1983,33.276,0.000
09/20/1983,34.089,0.000
09/21/1983,34.106,0.000
09/22/1983,34.106,0.000
09/23/1983,34.106,0.000
09/24/1983,34.108,0.000
09/25/1983,34.167,0.000
09/26/1983,34.167,0.000
09/27/1983,34.167,0.000
09/28/1983,34.167,0.000
09/29/1983,34.167,0.000
09/30/1983,34.167,0.000
10/01/1983,0.000,0.000
10/02/1983,0.000,0.000
10/03/1983,0.000,0.000
10/04/1983,0.052,0.000
10/05/1983,0.224,0.000
10/06/1983,0.224,0.000
10/07/1983,0.224,0.000
10/08/1983,0.318,0.000
10/09/1983,0.323,0.000
10/10/1983,0.333,0.000
10/11/1983,0.751,0.000
10/12/1983,1.637,0.000
10/13/1983,1.637,0.000
10/14/1983,1.637,0.000
10/15/1983,1.637,0.000
10/16/1983,1.662,0.000
10/17/1983,1.689,0.000
10/18/1983,1.713,0.000
10/19/1983,2.893,0.000
10/20/1983,3.601,0.000
10/21/1983,4.479,0.000
10/22/1983,4.549,0.000
10/23/1983,4.549,0.000
10/24/1983,4.550,0.000
10/25/1983,4.550,0.000
10/26/1983,4.550,0.000
10/27/1983,4.550,0.000
10/28/1983,4.550,0.000
10/29/1983,4.566,0.000
10/30/1983,5.057,0.000
10/31/1983,5.116,0.000
11/01/1983,5.231,0.000
11/02/1983,5.802,0.000
11/03/1983,5.830,0.000
11/04/1983,5.927,0.000
11/05/1983,5.936,0.000
11/06/1983,5.937,0.000
11/07/1983,5.973,0.000
11/08/1983,6.009,0.000
11/09/1983,6.200,0.000
11/10/1983,6.697,0.059
11/11/1983,6.697,0.036
11/12/1983,6.761,0.035
11/13/1983,6.761,0.025
11/14/1983,6.761,0.000
11/15/1983,6.761,0.000
11/16/1983,6.761,0.000
11/17/1983,6.761,0.000
11/18/1983,6.761,0.000
11/19/1983,6.905,0.000
11/20/1983,6.931,0.000
11/21/1983,6.986,0.000
11/22/1983,7.011,0.000
11/23/1983,7.597,0.000
11/24/1983,7.657,0.040
11/25/1983,7.657,0.016
11/26/1983,7.678,0.000
11/27/1983,8.553,0.000
11/28/1983,8.864,0.004
11/29/1983,8.864,0.004
11/30/1983,8.886,0.015
12/01/1983,8.886,0.015
12/02/1983,8.888,0.017
12/03/1983,8.956,0.020
12/04/1983,9.459,0.229
12/05/1983,9.462,0.229
12/06/1983,9.477,0.231
12/07/1983,9.477,0.231
12/08/1983,9.477,0.231
12/09/1983,9.477,0.231
12/10/1983,9.555,0.278
12/11/1983,9.957,0.296
12/12/1983,9.957,0.296
12/13/1983,9.957,0.296
12/14/1983,9.958,0.299
12/15/1983,9.976,0.325
12/16/1983,9.977,0.325
12/17/1983,10.003,0.373
12/18/1983,10.039,0.422
12/19/1983,10.061,0.442
12/20/1983,10.089,0.495
12/21/1983,10.332,0.818
12/22/1983,10.351,0.835
12/23/1983,10.370,0.849
12/24/1983,10.370,0.849
12/25/1983,10.370,0.849
12/26/1983,10.376,0.861
12/27/1983,10.378,0.863
12/28/1983,10.487,0.985
12/29/1983,10.501,0.996
12/30/1983,10.501,0.996
12/31/1983,10.501,0.996
01/01/1984,10.501,0.996
01/02/1984,10.501,0.996
01/03/1984,10.501,0.996
01/04/1984,10.501,0.816
01/05/1984,10.501,0.680
01/06/1984,10.501,0.457
01/07/1984,10.501,0.364
01/08/1984,10.501,0.258
01/09/1984,10.501,0.177
01/10/1984,10.501,0.177
01/11/1984,10.501,0.177
01/12/1984,10.520,0.194
01/13/1984,10.536,0.214
01/14/1984,10.536,0.214
01/15/1984,10.544,0.226
01/16/1984,10.660,0.365
01/17/1984,10.660,0.366
01/18/1984,10.666,0.373
01/19/1984,10.666,0.373
01/20/1984,10.666,0.373
01/21/1984,10.666,0.373
01/22/1984,10.666,0.373
01/23/1984,10.669,0.375
01/24/1984,10.669,0.375
01/25/1984,10.669,0.363
01/26/1984,10.669,0.188
01/27/1984,10.669,0.115
01/28/1984,10.669,0.102
01/29/1984,10.669,0.038
01/30/1984,10.669,0.003
01/31/1984,10.669,0.003
02/01/1984,10.669,0.000
02/02/1984,10.669,0.000
02/03/1984,10.669,0.000
02/04/1984,10.669,0.000
02/05/1984,10.669,0.001
02/06/1984,10.669,0.001
02/07/1984,10.669,0.001
02/08/1984,10.669,0.000
02/09/1984,10.848,0.000
02/10/1984,10.889,0.000
02/11/1984,10.889,0.000
02/12/1984,11.053,0.000
02/13/1984,11.053,0.000
02/14/1984,11.053,0.000
02/15/1984,11.062,0.000
02/16/1984,11.269,0.000
02/17/1984,11.283,0.000
02/18/1984,11.472,0.000
02/19/1984,11.489,0.000
02/20/1984,11.489,0.000
02/21/1984,11.489,0.000
02/22/1984,11.489,0.000
02/23/1984,11.489,0.000
02/24/1984,11.489,0.000
02/25/1984,11.498,0.000
02/26/1984,11.923,0.000
02/27/1984,12.234,0.098
02/28/1984,12.244,0.098
02/29/1984,12.244,0.098
03/01/1984,12.244,0.073
03/02/1984,12.244,0.003
03/03/1984,12.244,0.000
03/04/1984,12.813,0.000
03/05/1984,12.813,0.000
03/06/1984,12.813,0.000
03/07/1984,12.813,0.000
03/08/1984,12.819,0.000
03/09/1984,12.819,0.000
03/10/1984,12.874,0.056
03/11/1984,12.874,0.023
03/12/1984,13.122,0.208
03/13/1984,13.142,0.216
03/14/1984,13.142,0.001
03/15/1984,13.142,0.000
03/16/1984,13.148,0.000
03/17/1984,13.918,0.000
03/18/1984,13.954,0.000
03/19/1984,15.752,0.165
03/20/1984,15.991,0.367
03/21/1984,15.992,0.267
03/22/1984,15.992,0.180
03/23/1984,15.993,0.113
03/24/1984,16.396,0.073
03/25/1984,16.430,0.044
03/26/1984,16.712,0.001
03/27/1984,16.835,0.000
03/28/1984,16.855,0.000
03/29/1984,16.862,0.000
03/30/1984,16.862,0.000
03/31/1984,16.863,0.000
04/01/1984,16.864,0.000
04/02/1984,16.925,0.000
04/03/1984,17.571,0.000
04/04/1984,17.637,0.000
04/05/1984,17.637,0.000
04/06/1984,17.637,0.000
04/07/1984,17.672,0.000
04/08/1984,18.766,0.000
04/09/1984,18.922,0.000
04/10/1984,18.928,0.000
04/11/1984,18.976,0.000
04/12/1984,19.689,0.000
04/13/1984,19.689,0.000
04/14/1984,19.694,0.000
04/15/1984,19.720,0.000
04/16/1984,19.752,0.000
04/17/1984,19.753,0.000
04/18/1984,19.753,0.000
04/19/1984,19.753,0.000
04/20/1984,19.787,0.000
04/21/1984,20.956,0.000
04/22/1984,21.098,0.000
04/23/1984,21.113,0.000
04/24/1984,21.113,0.000
04/25/1984,21.113,0.000
04/26/1984,21.123,0.000
04/27/1984,21.439,0.000
04/28/1984,21.439,0.000
04/29/1984,21.619,0.000
04/30/1984,22.554,0.000
05/01/1984,22.554,0.000
05/02/1984,22.570,0.000
05/03/1984,23.111,0.000
05/04/1984,23.111,0.000
05/05/1984,23.111,0.000
05/06/1984,23.157,0.000
05/07/1984,23.261,0.000
05/08/1984,23.261,0.000
05/09/1984,23.261,0.000
05/10/1984,23.261,0.000
05/11/1984,23.261,0.000
05/12/1984,23.261,0.000
05/13/1984,23.261,0.000
05/14/1984,23.261,0.000
05/15/1984,23.261,0.000
05/16/1984,23.261,0.000
05/17/1984,23.261,0.000
05/18/1984,23.261,0.000
05/19/1984,23.297,0.000
05/20/1984,23.736,0.000
05/21/1984,23.741,0.000
05/22/1984,23.744,0.000
05/23/1984,23.794,0.000
05/24/1984,23.794,0.000
05/25/1984,23.797,0.000
05/26/1984,23.799,0.000
05/27/1984,24.241,0.000
05/28/1984,25.044,0.000
05/29/1984,25.045,0.000
05/30/1984,25.045,0.000
05/31/1984,25.045,0.000
06/01/1984,25.046,0.000
06/02/1984,25.294,0.000
06/03/1984,25.311,0.000
06/04/1984,25.312,0.000
06/05/1984,25.312,0.000
06/06/1984,25.312,0.000
06/07/1984,25.572,0.000
06/08/1984,26.494,0.000
06/09/1984,29.523,0.000
06/10/1984,30.241,0.000
06/11/1984,30.241,0.000
06/12/1984,30.260,0.000
06/13/1984,30.598,0.000
06/14/1984,30.641,0.000
06/15/1984,30.647,0.000
06/16/1984,30.660,0.000
06/17/1984,30.670,0.000
06/18/1984,30.742,0.000
06/19/1984,30.743,0.000
06/20/1984,30.883,0.000
06/21/1984,31.788,0.000
06/22/1984,32.443,0.000
06/23/1984,32.879,0.000
06/24/1984,32.879,0.000
06/25/1984,32.879,0.000
06/26/1984,32.898,0.000
06/27/1984,33.238,0.000
06/28/1984,33.322,0.000
06/29/1984,33.677,0.000
06/30/1984,33.677,0.000
07/01/1984,33.677,0.000
07/02/1984,33.677,0.000
07/03/1984,33.677,0.000
07/04/1984,33.835,0.000
07/05/1984,33.868,0.000
07/06/1984,33.984,0.000
07/07/1984,34.058,0.000